Weather in Swakopmund

Namibia     22°39′36″S   14°32′34″E
temp.,
°C
wind,
m/s
gust,
m/s
humid.,
%
clouds,
%
prec.,
mm/h
press.,
hPa
HPBL,
m
28 february, sun
sun2823:00+18sw568311 0.0 1012109
02:00+18ssw338636 0.0 101077
05:00+17sw338929 0.0 100994
08:00+18s228858 0.0 101166
11:00+18wsw338446 0.0 1011103
14:00+18sw568535 0.0 1009162
17:00+19ssw788123 0.0 1007217
20:00+18sw568514 0.0 1010133
1 march, mon
mon123:00+18wsw34907 0.0 101188
02:00+18w229032 0.0 101172
05:00+18nw239031 0.0 101059
08:00+18sw118956 0.0 101253
11:00+19ssw338225 0.0 1012108
14:00+19sw668231 0.0 1011154
17:00+19ssw710792 0.0 1009222
20:00+19ssw68791 0.0 1010146
2 march, tue
tue223:00+19ssw45790 0.0 101274
02:00+19ssw33800 0.0 101149
05:00+19wsw23820 0.0 101145
08:00+18sw22840 0.0 101246
11:00+19wsw33821 0.0 1013106
14:00+19sw66825 0.0 1011146
17:00+20ssw9117614 0.0 1010210
20:00+20ssw912767 0.0 1011190
3 march, wed
wed323:00+21ssw56730 0.0 101257
02:00+20ssw45770 0.0 101153
05:00+19ssw34800 0.0 101047
08:00+19sw227910 0.0 101140
11:00+20sw337570 0.0 101280
14:00+19sw678041 0.0 1010110
17:00+20ssw911755 0.0 1008178
20:00+20ssw810742 0.0 1010159
4 march, thu
thu423:00+21ssw78690 0.0 101180
02:00+20ssw55720 0.0 100943
05:00+20ssw34750 0.0 100836
08:00+20s12750 0.0 100937
11:00+21wsw237068 0.0 101063
14:00+21sw566642 0.0 100885
17:00+21ssw911660 0.0 1007156
20:00+21s810620 0.0 1008139